Date String (YYYY-MM-DD hh:mm:ss) UTC,Instrument flags,Ambient pressure (hPa),Sample flow (lpm),Bypass flow (lpm),Sample temperature (°C),Ambient temperature (°C),ASC tube jacket temperature (°C),LED temperature (°C),Box temperature (°C),Sample RH (%),Span deviation,Mass concentration (μg/m³),Mass concentration (μg/m³),Mass concentration (μg/m³)
DateTimeUTC,F1_M11,P_M11,Q1_M11,Q2_M11,T1_M11,T2_M11,T3_M11,T4_M11,T5_M11,U1_M11,ZSPAN_M11,X0_M11,X2_M11,X1_M11
2022-04-23 19:00:00,,0814.2,4.99,0.00,22.8,21.9,00.0,31.8,24.7,09.4,0000.0,0001.48,0000.51,0000.24
2022-04-23 19:01:00,,0814.0,4.99,0.00,22.9,21.9,00.0,31.8,24.7,09.5,0000.0,0001.26,0000.50,0000.23
2022-04-23 19:02:00,,0814.1,5.00,0.00,22.9,21.9,00.0,31.8,24.7,09.6,0000.0,0001.07,0000.50,0000.23
2022-04-23 19:03:00,,0814.1,5.00,0.00,22.9,21.9,00.0,31.8,24.7,09.6,0000.0,0001.04,0000.49,0000.23
2022-04-23 19:04:00,,0814.0,5.00,0.00,22.9,21.9,00.0,31.8,24.7,09.9,0000.0,0001.02,0000.49,0000.23
2022-04-23 19:05:00,,0814.0,5.01,0.00,22.9,21.9,00.0,31.8,24.7,09.7,0000.0,0001.09,0000.51,0000.25
2022-04-23 19:06:00,,0813.9,4.99,0.00,22.9,21.9,00.0,31.8,24.7,09.7,0000.0,0001.24,0000.48,0000.25
2022-04-23 19:07:00,,0813.9,5.00,0.00,22.8,21.9,00.0,31.8,24.7,09.8,0000.0,0001.68,0000.51,0000.26
2022-04-23 19:08:00,,0814.1,5.02,0.00,22.8,21.9,00.0,31.8,24.7,09.3,0000.0,0003.71,0000.57,0000.27
2022-04-23 19:09:00,,0814.1,4.99,0.00,22.8,21.9,00.0,31.8,24.7,09.4,0000.0,0004.28,0000.64,0000.28
2022-04-23 19:10:00,,0814.2,5.00,0.00,22.8,21.9,00.0,31.8,24.6,09.7,0000.0,0004.26,0000.64,0000.28
2022-04-23 19:11:00,,0814.1,5.00,0.00,22.8,21.9,00.0,31.8,24.6,09.5,0000.0,0004.17,0000.61,0000.28
2022-04-23 19:12:00,,0814.2,5.01,0.00,22.8,21.9,00.0,31.8,24.6,09.5,0000.0,0004.25,0000.61,0000.28
2022-04-23 19:13:00,,0814.2,5.00,0.00,22.8,21.9,00.0,31.8,24.6,09.4,0000.0,0004.30,0000.62,0000.28
2022-04-23 19:14:00,,0814.3,5.00,0.00,22.8,21.9,00.0,31.8,24.6,09.4,0000.0,0004.30,0000.62,0000.28
2022-04-23 19:15:00,,0814.3,4.99,0.00,22.8,21.9,00.0,31.8,24.6,09.3,0000.0,0004.41,0000.67,0000.29
2022-04-23 19:16:00,,0814.4,5.01,0.00,22.8,21.9,00.0,31.8,24.6,09.3,0000.0,0004.41,0000.67,0000.28
2022-04-23 19:17:00,,0814.4,4.99,0.00,22.8,21.9,00.0,31.8,24.6,09.4,0000.0,0004.15,0000.66,0000.28
2022-04-23 19:18:00,,0814.3,4.99,0.00,22.8,21.8,00.0,31.8,24.5,09.6,0000.0,0003.90,0000.64,0000.27
2022-04-23 19:19:00,,0814.4,5.01,0.00,22.8,21.8,00.0,31.8,24.5,09.6,0000.0,0002.02,0000.61,0000.27
2022-04-23 19:20:00,,0814.5,5.01,0.00,22.8,21.9,00.0,31.8,24.6,09.5,0000.0,0001.35,0000.56,0000.27
2022-04-23 19:21:00,,0814.4,4.98,0.00,22.8,21.9,00.0,31.8,24.6,09.5,0000.0,0001.33,0000.55,0000.27
2022-04-23 19:22:00,,0814.3,5.01,0.00,22.8,21.9,00.0,31.8,24.6,09.6,0000.0,0001.39,0000.57,0000.28
2022-04-23 19:23:00,,0814.0,5.01,0.00,22.8,21.9,00.0,31.8,24.7,09.6,0000.0,0001.35,0000.59,0000.28
2022-04-23 19:24:00,,0813.9,5.00,0.00,22.8,21.9,00.0,31.8,24.7,09.5,0000.0,0001.80,0000.59,0000.28
2022-04-23 19:25:00,,0814.0,4.99,0.00,22.8,21.9,00.0,31.8,24.7,09.4,0000.0,0002.48,0000.60,0000.29
2022-04-23 19:26:00,,0814.1,5.00,0.00,22.8,21.9,00.0,31.8,24.7,09.6,0000.0,0002.48,0000.60,0000.29
2022-04-23 19:27:00,,0814.2,5.01,0.00,22.8,21.8,00.0,31.8,24.7,09.8,0000.0,0002.54,0000.62,0000.29
2022-04-23 19:28:00,,0814.4,5.01,0.00,22.8,21.8,00.0,31.8,24.7,09.6,0000.0,0002.53,0000.62,0000.29
2022-04-23 19:29:00,,0814.4,4.99,0.00,22.8,21.8,00.0,31.8,24.6,09.6,0000.0,0002.45,0000.59,0000.30
2022-04-23 19:30:00,,0814.9,5.00,0.00,22.8,21.8,00.0,31.8,24.6,09.6,0000.0,0002.39,0000.57,0000.29
2022-04-23 19:31:00,,0815.0,5.02,0.00,22.8,21.8,00.0,31.8,24.6,09.2,0000.0,0002.44,0000.57,0000.29
2022-04-23 19:32:00,,0814.6,5.00,0.00,22.8,21.8,00.0,31.8,24.6,09.5,0000.0,0002.49,0000.56,0000.29
2022-04-23 19:33:00,,0814.5,5.00,0.00,22.8,21.8,00.0,31.7,24.6,09.7,0000.0,0002.47,0000.55,0000.29
2022-04-23 19:34:00,,0814.7,5.00,0.00,22.8,21.7,00.0,31.7,24.6,09.7,0000.0,0002.63,0000.54,0000.28
2022-04-23 19:35:00,,0814.8,4.99,0.00,22.8,21.7,00.0,31.7,24.6,09.7,0000.0,0002.27,0000.50,0000.28
2022-04-23 19:36:00,,0814.6,5.00,0.00,22.8,21.7,00.0,31.7,24.6,09.7,0000.0,0001.40,0000.50,0000.28
2022-04-23 19:37:00,,0814.7,5.01,0.00,22.8,21.7,00.0,31.7,24.6,09.5,0000.0,0001.40,0000.49,0000.28
2022-04-23 19:38:00,,0814.8,5.00,0.00,22.8,21.7,00.0,31.7,24.6,09.6,0000.0,0001.43,0000.48,0000.27
2022-04-23 19:39:00,,0815.1,4.99,0.00,22.8,21.8,00.0,31.7,24.5,09.7,0000.0,0002.00,0000.49,0000.27
2022-04-23 19:40:00,,0814.9,4.99,0.00,22.7,21.8,00.0,31.7,24.5,09.8,0000.0,0002.32,0000.50,0000.27
2022-04-23 19:41:00,,0815.0,5.01,0.00,22.7,21.8,00.0,31.7,24.4,09.8,0000.0,0002.62,0000.49,0000.27
2022-04-23 19:42:00,,0815.2,4.99,0.00,22.7,21.8,00.0,31.7,24.4,09.7,0000.0,0002.52,0000.48,0000.27
2022-04-23 19:43:00,,0815.3,4.99,0.00,22.7,21.8,00.0,31.7,24.5,09.7,0000.0,0002.45,0000.47,0000.26
2022-04-23 19:44:00,,0815.4,5.01,0.00,22.7,21.8,00.0,31.7,24.5,09.5,0000.0,0002.51,0000.49,0000.26
2022-04-23 19:45:00,,0815.9,4.99,0.00,22.7,21.8,00.0,31.7,24.5,09.7,0000.0,0002.30,0000.46,0000.25
2022-04-23 19:46:00,,0815.6,4.99,0.00,22.7,21.8,00.0,31.7,24.5,09.9,0000.0,0002.20,0000.48,0000.25
2022-04-23 19:47:00,,0815.8,4.99,0.00,22.7,21.8,00.0,31.7,24.5,09.4,0000.0,0002.20,0000.48,0000.25
2022-04-23 19:48:00,,0815.8,5.01,0.00,22.7,21.8,00.0,31.7,24.5,09.5,0000.0,0002.20,0000.49,0000.25
2022-04-23 19:49:00,,0815.9,5.01,0.00,22.7,21.8,00.0,31.7,24.5,09.5,0000.0,0002.42,0000.51,0000.25
2022-04-23 19:50:00,,0816.0,5.00,0.00,22.7,21.8,00.0,31.7,24.5,09.4,0000.0,0002.70,0000.51,0000.25
2022-04-23 19:51:00,,0815.8,4.99,0.00,22.7,21.8,00.0,31.7,24.5,09.5,0000.0,0002.51,0000.54,0000.25
2022-04-23 19:52:00,,0815.8,4.99,0.00,22.7,21.8,00.0,31.7,24.5,09.5,0000.0,0002.13,0000.54,0000.25
2022-04-23 19:53:00,,0815.8,4.99,0.00,22.7,21.8,00.0,31.7,24.5,09.5,0000.0,0002.11,0000.53,0000.25
2022-04-23 19:54:00,,0815.8,5.00,0.00,22.7,21.9,00.0,31.7,24.5,09.5,0000.0,0002.15,0000.53,0000.25
2022-04-23 19:55:00,,0815.8,5.00,0.00,22.7,21.8,00.0,31.7,24.5,09.7,0000.0,0002.29,0000.52,0000.25
2022-04-23 19:56:00,,0815.8,5.01,0.00,22.8,21.8,00.0,31.7,24.5,09.7,0000.0,0002.29,0000.53,0000.25
2022-04-23 19:57:00,,0815.8,5.00,0.00,22.8,21.8,00.0,31.7,24.6,09.7,0000.0,0002.26,0000.51,0000.26
2022-04-23 19:58:00,,0815.8,4.99,0.00,22.8,21.8,00.0,31.7,24.6,09.8,0000.0,0002.22,0000.50,0000.25
2022-04-23 19:59:00,,0815.8,5.00,0.00,22.8,21.8,00.0,31.7,24.6,09.8,0000.0,0002.18,0000.49,0000.25
